Voltar ao catálogo

ASTRA 3B

AtivoComunicaçõesGEO
NORAD 36581·PAYLOAD·🇱🇺 Luxembourg

Lançado May 21, 2010 de Guiana Space Centre

Loading…

TLE

AtualizadoSource: CelesTrak SupGP

Época: Sep 14, 2026, 23:30 UTC

1 36581C 10021A   26257.97916667  .00000227  00000+0  00000+0 0  2576
2 36581   1.6951  82.3164 0004066  58.1413 229.4761  1.00271958    14

Acompanhe ASTRA 3B em tempo real com AllMySat

Download on the App Store